Regional Weather Roundup
Issued by NWS

Home | Current Version | Previous Version | Text Only | Print | Product List | Glossary On
Versions: 1 2 3 4 5 6 7 8 9 10 11 12 13 14 15 16 17 18 19 20 21 22 23 24 25 26 27 28 29 30 31 32 33 34 35 36 37 38 39 40 41 42 43 44 45 46 47 48 49 50
000
ASUS43 KOAX 190510
RWRNE

WEATHER ROUNDUP FOR NEBRASKA
NATIONAL WEATHER SERVICE OMAHA NE
1200 AM CDT TUE SEP 19 2017

NOTES: SATELLITE DATA IS BEING USED TO AUGMENT CLOUD COVER ABOVE
       12000 FEET.
       "FAIR" INDICATES FEW OR NO CLOUDS BELOW 12,000 FEET WITH NO
       SIGNIFICANT WEATHER AND/OR OBSTRUCTIONS TO VISIBILITY.


NEZ001>004-019>022-054>056-190600-
NEBRASKA PANHANDLE

CITY           SKY/WX    TMP DP  RH WIND       PRES   REMARKS
SCOTTSBLUFF    CLEAR     58  44  60 E9        29.79F
ALLIANCE       CLEAR     57  46  66 S14       29.80F
CHADRON        CLEAR     70  37  29 S21       29.71F
GORDON         FAIR      65  46  49 S14G21    29.78F
KIMBALL        CLEAR     63  39  42 SE17      29.86F
SIDNEY         CLEAR     64  45  49 S15       29.86F
$$

NEZ057>060-069>072-079>082-190600-
SOUTHWEST NEBRASKA

CITY           SKY/WX    TMP DP  RH WIND       PRES   REMARKS
NORTH PLATTE   CLEAR     58  55  90 E8        29.84F
IMPERIAL       CLEAR     59  51  75 SE8       29.85
LEXINGTON      CLEAR     67  62  83 SE10      29.86F
MCCOOK         CLEAR     66  59  78 SE10      29.84F
OGALLALA       CLEAR     65  53  64 SE9       29.84F
$$

NEZ005>010-023>029-035>040-094-190600-
NORTH CENTRAL NEBRASKA

CITY           SKY/WX    TMP DP  RH WIND       PRES   REMARKS
VALENTINE      PTCLDY    67  58  72 S17G23    29.79F
AINSWORTH      CLEAR     63  61  94 S12       29.82F
BROKEN BOW     CLEAR     55  53  93 CALM      29.85
O`NEILL        CLEAR     63  63 100 SE7       29.84S
ORD            FOG       55  53  93 E3        29.83F VSB 3/4
THEDFORD       CLEAR     65  59  80 S15       29.84F
$$

NEZ041-046>049-061>064-073>077-083>087-190600-
SOUTH CENTRAL NEBRASKA

CITY           SKY/WX    TMP DP  RH WIND       PRES   REMARKS
GRAND ISLAND   CLEAR     65  65 100 SE7       29.87F
AURORA         CLEAR     62  62 100 SE7       29.87F
HASTINGS       CLEAR     67  63  87 SE8       29.87F
HEBRON         PTCLDY    68  65  90 CALM      29.88S
HOLDREGE       CLEAR     63  61  93 SE7       29.86F
KEARNEY        CLEAR     64  62  93 SE7       29.87F
YORK           CLEAR     66  66 100 SE8       29.88F
$$

NEZ011>018-030>034-042>045-190600-
NORTHEAST NEBRASKA

CITY           SKY/WX    TMP DP  RH WIND       PRES   REMARKS
NORFOLK        CLEAR     62  62 100 SE7       29.87S FOG
ALBION         CLEAR     63  62  98 SE6       29.87F FOG
BLAIR          CLEAR     67  65  96 SE6       29.90F FOG
COLUMBUS       CLEAR     62  61  96 E5        29.88F FOG
FREMONT        CLEAR     66  66  98 E6        29.89F FOG
TEKAMAH        MOCLDY    66  64  93 SE6       29.89S
WAYNE          CLEAR     64  61  91 S5        29.88S FOG
$$

NEZ050>053-065>068-078-088>093-190600-
SOUTHEAST NEBRASKA

CITY           SKY/WX    TMP DP  RH WIND       PRES   REMARKS
LINCOLN        CLEAR     65  64  97 CALM      29.90S
OMAHA EPPLEY   CLEAR     68  64  87 SE9       29.90S
BEATRICE       CLEAR     67  66  94 CALM      29.88S
FALLS CITY     MOCLDY    67  66  97 E8        29.90S
NEBRASKA CITY  CLEAR     67  67 100 SE6       29.91S
PLATTSMOUTH    CLEAR     66  66 100 SE7       29.91S FOG
$$

NEZ044-045-051>053-067-190600-
OMAHA AREA

CITY           SKY/WX    TMP DP  RH WIND       PRES   REMARKS
OMAHA EPPLEY   CLEAR     68  64  87 SE9       29.90S
BLAIR          CLEAR     67  65  96 SE6       29.90F FOG
FREMONT        CLEAR     66  66  98 E6        29.89F FOG
MILLARD        PTCLDY    68  67  94 SE7       29.90S
OFFUTT AFB     CLEAR     67  65  94 E7        29.89F
PLATTSMOUTH    CLEAR     66  66 100 SE7       29.91S FOG
WAHOO          FAIR      65  64  99 SE5       29.89F FOG
$$



USA.gov is the U.S. government's official web portal to all federal, state and local government web resources and services.